Wind_Speed
33 28 26 22 20 19 17 15 11 8 6 4 3 3 4 4 4 6 2 5 3 2 3 5 3 6 3 7 4 8 4 1 2 3 3 3 1 4 1 4 7 7 6 4 3 3 6 1 1 2 6 9 5 6
32 28 26 23 20 17 16 14 11 8 6 4 3 2 3 4 3 2 1 5 8 2 3 5 5 6 6 7 4 7 2 7 5 3 2 1 2 2 3 3 7 4 6 4 9 5 7 3 4 2 1 3 3 3
18 27 27 23 19 17 14 12 10 8 6 4 3 1 3 4 3 3 4 2 3 2 3 3 3 3 3 5 4 3 1 4 6 3 4 3 3 4 4 4 3 4 7 3 3 8 10 7 2 6 6 4 3 2
20 20 18 20 18 17 15 13 10 8 6 4 3 1 2 3 4 5 2 2 2 5 4 3 2 2 2 2 1 3 5 8 6 4 3 3 3 8 5 6 4 5 4 6 8 12 10 6 10 9 5 1 3 8
20 20 17 13 12 14 14 14 12 10 8 5 3 2 1 2 3 5 2 3 2 3 3 1 0 2 1 2 4 5 10 6 3 2 2 4 2 1 3 1 3 5 9 7 8 6 1 5 8 3 2 2 5 3
21 17 16 14 11 8 13 15 14 12 9 6 4 2 1 1 1 1 3 3 2 4 3 2 2 2 2 3 6 6 7 3 4 4 3 3 6 3 3 3 7 9 7 6 6 5 7 8 5 3 4 3 2 5
20 19 16 14 13 9 5 9 18 14 11 8 5 3 2 1 2 2 1 2 1 3 2 1 2 2 4 5 2 2 3 2 1 1 3 2 2 4 4 5 7 8 8 5 6 9 6 3 4 4 4 2 4 6
16 17 16 14 12 11 9 3 7 17 15 11 8 4 3 1 1 2 2 2 3 1 1 2 2 1 4 1 2 4 2 2 1 1 1 2 2 1 4 8 10 13 8 8 6 4 7 9 7 9 6 1 5 7
15 15 15 14 12 9 7 7 2 10 17 13 9 6 3 2 3 2 3 2 2 1 2 2 5 4 4 2 2 2 1 1 0 1 1 1 3 6 6 7 8 7 7 9 8 6 9 10 5 2 2 4 6 8
14 14 15 15 15 8 6 6 2 4 18 17 12 4 1 3 6 9 2 1 2 2 2 3 3 3 4 2 1 2 2 1 2 2 2 2 3 10 10 8 4 8 9 10 8 8 7 4 1 2 4 6 8 9
12 13 13 14 16 11 10 11 4 10 11 4 2 1 1 9 4 1 2 3 2 2 3 3 6 5 3 3 2 0 3 2 3 2 4 3 3 6 11 7 3 4 9 8 8 6 8 3 2 3 4 6 5 7
10 11 12 12 14 10 11 8 5 4 5 7 10 7 4 3 2 4 5 1 4 4 3 3 1 3 2 0 3 2 3 2 4 6 2 3 3 6 9 7 6 8 11 10 10 7 4 2 5 5 6 7 8 10
7 8 10 12 11 11 15 16 17 18 10 7 7 4 2 2 2 2 4 2 2 2 2 2 2 2 2 2 3 2 6 5 1 3 3 2 6 5 8 7 8 13 15 10 6 5 6 5 7 9 11 13 15 15
3 5 6 9 11 8 8 8 8 5 6 3 2 3 2 2 2 1 2 2 2 2 2 3 3 2 1 2 2 3 1 2 3 3 4 1 5 5 7 5 7 10 10 7 4 3 5 8 11 13 15 17 17 18
3 2 4 6 7 7 4 5 2 5 3 2 0 2 2 1 1 2 2 1 3 1 2 2 2 2 2 3 0 3 4 3 2 2 3 4 7 9 7 7 8 6 5 2 3 7 10 12 13 15 16 16 17 17
2 3 3 2 6 7 7 5 5 4 2 2 2 2 1 1 1 2 2 1 1 1 0 2 2 1 2 2 2 1 1 0 2 2 2 5 6 6 4 4 4 1 2 4 7 10 13 14 15 16 15 17 23 21
3 2 2 5 4 3 4 4 3 3 1 1 2 1 2 3 2 1 1 2 4 2 2 1 2 4 1 0 1 1 1 2 2 2 4 5 5 3 1 1 3 4 7 9 12 14 14 15 16 17 15 19 18 18
1 1 1 7 6 2 3 3 2 1 1 2 1 2 2 3 2 1 2 1 1 1 1 1 2 1 0 1 2 2 2 2 2 2 3 2 2 4 6 7 9 9 11 12 14 16 17 17 15 16 19 20 14 11
5 3 2 9 3 3 2 2 3 1 2 2 2 2 2 2 2 4 3 4 3 1 1 1 1 2 1 2 1 1 2 1 2 2 1 1 3 3 5 7 9 12 13 14 14 13 15 16 18 19 19 17 14 15
6 4 2 11 3 3 2 1 0 1 1 2 2 2 2 2 1 1 1 1 1 1 1 1 2 1 1 1 0 2 1 1 2 2 3 3 6 3 6 9 9 12 14 14 14 15 15 15 17 18 19 20 18 11
6 3 1 8 3 2 2 2 2 1 2 2 2 3 2 2 2 1 1 1 1 2 3 3 1 1 2 4 4 4 2 1 2 2 3 4 6 8 10 12 12 12 11 11 11 15 16 16 18 20 21 15 8 8
4 9 4 3 1 2 2 1 2 2 2 2 2 2 2 2 2 1 1 1 2 4 3 2 3 1 2 4 4 4 4 4 6 7 9 9 4 7 7 8 9 10 11 13 15 16 17 18 18 21 21 18 15 16
10 6 3 2 2 2 3 2 2 3 3 4 3 3 2 2 1 2 2 3 3 2 5 4 1 2 3 3 2 3 4 5 6 7 9 8 9 11 12 13 15 16 14 17 17 17 16 15 19 19 16 17 15 14
5 2 2 2 1 3 2 3 2 3 3 4 4 3 3 2 2 2 2 2 1 3 0 1 2 3 5 2 3 4 9 9 9 8 10 11 11 14 17 18 19 20 19 18 18 18 17 19 20 18 16 13 13 13
3 3 2 3 2 3 4 5 4 3 3 3 4 2 3 3 3 3 2 2 6 5 5 10 6 1 2 3 5 10 19 18 14 12 14 16 17 17 17 17 19 18 23 23 18 14 14 14 15 15 13 11 15 16
2 2 2 2 2 2 3 3 4 4 3 3 2 3 2 2 2 3 2 4 5 5 6 7 7 5 5 12 9 12 14 17 16 14 16 18 20 18 17 14 14 13 20 22 22 19 18 17 16 15 11 14 16 13
3 2 1 3 2 5 4 2 3 2 3 3 4 4 3 3 4 3 4 9 4 7 7 9 8 9 8 10 10 11 12 13 13 16 19 19 9 15 16 14 14 16 20 19 19 19 20 19 17 15 15 14 11 13
2 1 3 2 3 2 3 3 3 3 2 3 6 4 3 2 3 3 3 6 6 5 5 8 9 8 8 9 9 8 11 14 15 13 11 6 12 17 22 20 20 22 21 21 21 21 20 19 19 15 14 13 12 5
2 2 2 3 2 2 1 2 2 2 2 3 3 3 3 3 4 5 6 6 6 6 8 8 10 10 9 9 9 7 9 13 15 12 12 7 13 17 25 23 24 24 23 24 22 21 21 21 18 14 13 7 8 8
2 3 2 2 1 2 3 4 2 3 3 3 2 3 4 3 6 6 6 7 8 8 7 7 7 9 9 10 10 11 8 11 13 13 9 9 16 23 23 23 25 24 24 23 23 23 20 20 17 8 7 8 9 9
2 1 2 2 2 3 3 2 1 1 1 1 2 2 3 4 5 7 8 7 6 7 7 8 8 9 10 10 10 11 10 9 13 11 13 15 18 20 22 24 24 22 22 21 21 20 18 16 12 10 8 10 11 11
2 3 2 1 2 2 1 2 1 1 1 1 2 3 4 4 3 3 5 7 5 6 7 8 9 10 10 10 8 7 9 12 13 15 17 16 19 21 22 23 21 21 21 20 18 16 13 12 9 9 10 10 10 10
2 2 2 2 1 1 2 3 2 2 1 2 3 3 4 4 3 3 3 5 4 5 6 7 9 11 11 6 10 9 10 13 16 16 16 19 21 23 24 21 19 18 21 18 16 12 10 9 8 9 9 9 9 8
Wind_Direction
178 169 172 170 172 175 175 172 168 160 150 135 100 54 32 29 54 65 70 30 26 62 68 7 9 205 161 187 138 144 127 151 82 96 152 197 154 225 170 191 163 168 163 198 198 233 255 68 302 219 358 333 43 9
169 166 168 169 171 173 174 172 170 163 150 138 118 66 28 21 49 76 120 62 73 30 77 38 40 22 21 357 144 161 191 147 164 132 161 154 183 0 24 214 206 210 188 186 188 216 212 316 202 289 51 156 77 265
104 160 167 166 166 173 175 173 175 173 165 152 143 101 34 28 38 73 56 22 63 75 123 171 132 33 53 36 85 135 329 205 161 66 141 166 184 173 179 228 277 250 271 212 201 252 269 287 47 123 118 86 129 230
78 94 129 157 170 173 172 176 178 177 176 173 170 144 45 34 57 85 19 4 13 73 115 128 127 137 357 30 100 16 133 71 94 104 122 156 177 201 195 259 254 218 265 269 275 283 287 59 101 115 118 139 216 236
69 70 79 104 156 183 185 182 182 183 183 179 186 184 148 57 83 74 60 42 54 328 165 119 335 98 131 177 167 132 135 141 121 103 133 207 224 315 83 69 237 242 260 248 260 274 251 94 126 104 41 96 254 351
71 71 71 75 90 128 187 192 192 187 184 184 181 182 202 214 94 139 178 75 20 21 97 120 76 159 166 196 195 182 183 201 185 152 195 252 182 182 154 226 245 255 282 306 316 47 74 114 70 114 137 174 11 351
68 66 68 69 65 77 106 192 202 196 195 201 193 199 195 184 31 18 28 311 193 104 97 68 200 50 311 179 136 229 58 22 250 218 181 217 248 199 160 225 244 275 260 259 68 118 114 93 135 170 169 169 206 289
62 60 58 59 60 58 64 88 198 201 200 199 196 200 200 176 178 261 349 75 109 68 62 150 159 241 210 105 108 330 55 8 278 294 75 204 244 59 245 241 251 255 251 106 132 94 139 158 186 194 191 354 335 327
50 56 52 45 39 41 47 50 110 197 196 191 187 196 195 208 208 172 167 72 59 342 208 122 159 197 153 62 57 53 23 156 327 246 202 224 163 221 230 244 252 225 153 151 149 179 176 189 162 112 13 337 333 335
45 45 44 42 28 40 43 4 8 173 188 183 176 167 241 196 183 131 101 176 350 218 153 179 185 165 155 161 80 113 18 253 227 214 133 235 252 264 267 288 291 138 142 157 175 183 162 144 145 15 339 336 332 348
42 40 38 40 34 37 40 26 105 120 127 135 109 95 123 133 134 10 146 201 177 248 197 191 180 150 190 136 150 122 173 157 239 173 216 231 253 233 238 215 144 154 157 167 162 139 93 94 21 332 339 17 340 301
43 41 36 32 35 34 45 87 104 92 123 122 113 104 124 54 30 184 180 164 192 216 120 136 109 99 73 137 129 186 165 155 236 143 215 251 241 76 106 131 161 154 144 118 112 113 91 28 353 5 324 303 296 299
56 45 29 26 37 83 79 93 104 108 96 54 45 51 28 47 180 208 204 217 216 129 148 143 68 94 113 72 89 149 189 207 9 182 234 243 93 120 135 143 142 89 75 83 104 68 28 342 330 316 295 292 293 296
35 48 40 31 40 127 102 92 86 56 53 62 73 96 332 144 55 33 323 357 347 59 99 103 98 117 117 98 128 186 140 191 207 220 209 95 99 123 124 115 134 106 87 73 26 329 315 301 290 296 295 294 296 295
42 54 55 43 40 64 156 193 69 62 69 75 106 73 63 64 23 344 310 359 343 60 51 58 62 96 108 122 187 126 175 209 234 204 67 52 53 86 81 87 93 118 138 194 334 331 314 305 294 295 296 294 291 286
63 82 147 143 89 92 98 84 54 45 47 97 81 138 124 105 40 15 6 27 29 302 78 44 78 83 76 55 179 184 227 242 75 51 48 76 69 83 99 115 142 181 37 332 319 310 303 297 290 286 289 285 291 292
69 36 162 180 137 86 97 65 47 32 61 51 104 27 89 84 107 88 320 20 6 22 46 359 46 54 162 143 62 43 9 70 114 128 56 91 106 118 82 300 224 260 286 289 296 295 292 293 290 290 284 287 281 275
11 24 225 172 133 97 53 51 104 171 69 99 145 131 40 11 74 90 112 119 51 38 274 64 168 94 348 287 192 121 120 104 82 86 116 109 74 21 346 328 312 315 309 305 300 296 290 283 273 270 268 276 282 288
16 20 196 175 164 97 72 30 326 115 54 77 57 99 59 78 54 37 53 32 55 15 93 32 50 235 246 61 51 73 76 110 152 181 210 165 240 253 288 294 296 292 284 284 286 285 285 286 284 285 286 286 278 282
249 329 344 184 123 110 93 108 83 25 123 103 70 100 51 48 35 351 29 16 7 50 110 194 248 26 23 113 158 153 151 151 42 315 297 296 311 245 238 256 274 285 293 293 292 290 287 287 285 282 282 279 278 277
224 229 139 179 352 47 96 151 112 100 135 104 141 147 96 123 106 117 122 44 12 233 228 217 186 189 190 50 23 8 344 300 277 284 286 290 321 337 311 294 283 278 277 285 285 289 288 283 293 298 301 299 284 294
183 188 147 145 50 21 74 75 80 121 58 110 198 129 120 147 146 129 60 237 243 237 233 256 276 281 189 182 225 250 282 312 301 284 281 273 260 262 262 283 304 291 292 290 291 289 293 299 303 301 297 294 295 302
169 148 126 117 163 172 125 240 138 167 141 157 177 122 159 161 139 178 227 236 245 277 292 280 343 67 286 325 349 293 270 271 289 304 311 297 283 279 280 280 286 285 285 289 293 297 294 308 319 308 297 300 299 291
121 24 115 147 227 114 151 134 175 121 131 175 172 172 139 161 173 210 240 233 339 78 6 240 236 229 173 192 242 72 43 2 336 328 335 315 294 290 292 294 295 294 297 301 304 296 301 304 309 302 293 292 294 296
186 167 205 145 205 155 134 144 161 157 143 172 153 147 138 178 200 214 229 137 57 33 15 2 328 41 26 57 40 41 41 27 3 338 327 330 332 329 327 326 322 321 318 309 293 296 293 301 299 296 289 297 301 297
160 151 254 134 163 161 141 129 166 162 130 145 146 95 180 197 217 230 132 67 67 54 35 22 3 7 34 30 15 12 359 357 345 321 318 336 325 313 307 307 315 333 355 347 342 333 319 309 301 294 296 301 296 299
155 146 152 294 107 96 97 67 94 140 153 152 154 170 169 205 221 102 105 30 53 29 15 35 24 20 1 354 356 345 346 345 336 315 310 312 347 46 31 9 356 347 344 341 338 335 330 326 322 317 310 304 309 309
80 177 150 133 89 47 113 125 151 160 147 150 146 188 209 231 53 56 56 35 17 0 26 43 41 14 3 360 347 357 6 353 347 351 353 89 47 27 12 359 350 347 344 339 336 332 328 326 321 320 324 322 318 12
79 83 95 73 86 92 116 119 137 122 77 156 191 193 126 68 33 49 47 14 15 26 33 20 17 9 23 15 20 43 24 15 8 6 1 348 348 347 348 345 341 340 337 335 334 332 328 325 324 313 308 347 23 40
80 320 79 70 59 82 60 17 56 22 353 29 51 118 109 102 64 48 50 45 41 35 29 30 30 25 18 14 5 6 42 43 27 8 347 340 332 329 333 335 332 332 331 331 330 331 335 333 334 337 17 32 30 36
54 49 74 62 68 62 43 354 268 214 312 350 48 36 92 123 119 57 44 34 47 46 34 25 16 25 11 1 358 347 340 353 350 347 339 328 326 328 327 326 328 327 325 324 326 327 333 337 345 10 48 50 41 41
34 35 26 32 76 81 9 360 348 280 199 229 162 108 145 165 104 86 21 13 47 42 30 17 7 353 345 333 334 330 324 326 333 336 334 330 329 327 325 326 329 324 325 326 327 330 341 347 7 24 34 46 46 41
53 37 34 1 321 354 38 331 292 308 211 246 91 64 49 13 78 96 81 40 44 36 9 350 337 332 327 331 328 336 343 331 324 326 327 327 329 325 329 330 327 326 333 332 329 340 357 3 17 32 40 44 44 39
Height
727 734 741 746 752 757 762 765 767 769 771 772 773 774 774 775 775 774 776 775 776 780 781 779 778 778 780 784 802 800 810 812 819 838 838 829 837 825 822 813 837 847 850 859 852 855 847 815 818 833 825 824 828 832
726 734 741 748 753 758 761 764 767 769 771 773 774 775 776 776 775 776 777 777 777 778 784 785 786 786 786 788 786 797 798 803 808 820 825 828 843 839 833 825 802 822 820 826 832 829 812 809 816 820 824 828 833 836
731 735 742 748 753 757 761 765 768 771 773 774 776 777 778 777 777 778 779 779 779 782 786 786 787 789 789 788 789 797 799 794 799 801 824 833 845 829 841 824 812 804 800 815 818 809 808 807 810 819 824 828 832 835
738 739 743 748 754 758 761 765 768 771 773 775 777 778 779 779 779 780 781 781 781 785 801 788 789 790 791 791 792 792 792 797 800 809 827 834 835 811 824 815 812 808 804 806 807 802 802 808 814 820 825 829 831 831
742 743 746 750 754 758 762 765 769 771 773 776 778 779 780 781 781 781 783 782 783 785 795 789 789 791 792 793 793 794 795 798 805 820 829 827 812 811 815 820 815 803 803 810 810 800 804 811 819 821 823 827 830 828
750 751 752 754 756 758 762 765 769 772 775 777 779 780 782 782 782 782 782 785 785 785 791 798 792 791 792 793 794 795 796 797 799 810 818 809 801 808 822 818 801 795 794 795 801 802 808 816 821 822 824 826 827 831
755 758 758 757 758 760 761 764 767 770 774 777 780 781 782 783 783 784 785 787 785 786 791 799 794 796 796 794 795 797 798 799 800 802 808 810 804 804 820 813 797 793 794 795 802 809 815 818 821 822 822 823 825 827
761 762 762 762 762 763 763 764 766 769 773 777 779 782 783 783 785 786 786 786 786 787 790 796 798 800 797 798 803 804 807 807 805 802 810 809 803 812 808 793 790 789 789 798 806 811 814 818 819 818 820 822 825 826
763 765 765 765 764 764 765 765 766 768 772 776 779 782 784 785 786 785 786 787 788 791 788 801 800 801 796 806 810 811 810 814 809 813 811 809 808 804 790 787 785 783 794 801 808 812 814 815 814 817 820 823 825 826
767 767 767 767 767 766 766 766 766 768 771 775 780 782 783 783 784 785 787 788 790 787 789 794 788 793 794 809 811 815 818 813 812 812 815 814 800 789 782 783 784 787 793 802 806 809 810 814 817 820 823 825 826 827
771 771 771 770 769 769 767 766 767 768 771 773 777 781 783 783 785 787 790 791 791 790 788 787 786 793 797 803 809 813 814 815 809 807 808 802 796 783 780 784 790 792 795 800 804 808 813 817 820 822 823 825 826 827
773 774 774 774 772 773 769 769 771 772 773 775 776 781 784 785 789 785 788 793 788 777 786 789 789 789 799 798 803 816 811 817 802 808 811 794 779 777 782 789 795 797 799 803 809 814 818 820 822 823 824 824 824 823
777 777 777 775 775 776 776 774 774 775 776 777 780 785 786 794 787 783 780 782 782 788 790 791 795 799 803 804 810 812 807 803 809 805 798 785 782 785 787 793 797 802 806 809 813 817 820 822 822 823 822 821 820 819
778 779 779 779 779 779 779 780 780 780 781 787 790 786 787 784 787 788 789 790 792 790 791 792 796 798 804 803 808 801 807 805 800 796 793 784 786 788 792 797 800 808 813 816 818 819 820 820 820 819 819 817 817 815
780 780 781 781 781 781 782 783 784 782 785 789 791 785 789 797 797 797 797 796 795 793 794 794 796 797 801 802 804 804 804 795 794 792 797 794 795 797 801 804 808 812 814 816 816 817 817 817 816 815 815 814 812 811
782 782 784 784 784 784 785 785 785 787 788 791 793 793 796 793 796 798 799 798 797 795 794 795 797 795 797 798 798 794 793 791 794 799 799 801 804 806 807 808 810 811 812 814 814 814 814 813 812 811 811 809 807 806
782 783 784 785 786 786 787 787 790 793 793 794 792 794 795 795 797 799 799 799 798 799 798 798 793 800 805 798 797 799 798 801 801 802 804 805 807 809 810 810 810 810 811 811 812 811 810 809 808 808 806 802 800 799
785 784 785 786 787 788 789 791 793 793 793 790 790 795 797 798 798 799 799 801 801 801 799 800 800 802 799 796 793 796 798 800 802 803 805 806 807 809 810 811 810 810 809 809 809 808 806 805 804 802 800 797 795 794
785 785 786 787 789 789 792 794 793 790 793 794 798 799 800 803 804 804 803 804 804 803 802 801 802 799 796 797 798 800 800 800 803 805 805 806 807 808 808 808 810 809 807 805 804 803 802 800 799 797 795 793 791 789
786 787 787 788 789 791 793 793 794 790 790 794 798 799 803 805 807 807 805 806 806 805 805 803 799 797 798 798 799 800 800 802 803 805 806 805 804 804 805 805 805 806 804 802 800 799 797 795 792 790 789 787 785 784
786 787 788 789 789 789 789 789 792 792 793 795 799 798 806 807 806 806 807 807 807 805 798 795 796 799 800 801 802 802 803 803 803 805 805 804 803 804 804 804 803 802 801 799 797 795 793 791 788 785 783 782 781 781
786 787 789 790 790 790 791 792 790 793 795 798 799 797 804 805 806 808 809 808 803 796 794 794 796 797 798 799 800 801 803 803 803 804 804 803 802 801 800 800 800 798 797 795 793 791 788 786 784 782 779 778 777 776
787 788 789 790 790 790 796 793 793 791 796 798 798 800 803 805 806 811 807 801 797 795 794 794 795 797 799 800 801 802 802 803 803 802 801 800 800 799 798 798 797 794 792 789 787 786 783 781 780 778 776 774 773 772
787 788 787 787 787 789 792 792 790 790 792 793 794 796 798 802 808 806 800 795 794 796 798 798 799 798 799 800 799 799 801 802 801 800 800 800 798 796 795 793 791 789 787 784 782 780 779 777 775 773 772 770 769 768
787 789 787 787 788 786 785 789 789 789 790 793 795 796 801 805 800 798 798 793 802 806 806 803 800 799 798 799 800 802 804 805 805 804 802 801 798 795 793 791 789 787 785 781 777 775 774 773 771 770 768 767 766 764
778 784 781 780 782 779 781 784 785 786 788 792 794 800 802 798 797 793 789 803 807 810 810 809 808 805 804 807 808 809 810 809 808 806 804 803 801 799 794 790 787 785 784 783 779 776 773 770 768 766 764 764 762 760
777 779 782 782 778 779 785 787 786 787 789 790 792 799 798 797 791 792 806 813 814 816 816 815 814 814 814 813 814 814 812 811 810 808 804 801 799 797 796 795 792 790 786 783 780 777 774 770 767 764 762 760 758 757
778 778 780 780 779 779 782 784 787 786 785 784 790 794 792 789 795 810 815 818 818 817 817 817 816 817 816 816 815 814 813 811 809 806 802 800 799 799 798 796 793 790 786 783 780 777 773 770 766 763 761 759 757 755
781 781 783 787 782 783 782 782 781 780 782 785 787 786 792 809 816 816 819 820 819 819 818 818 818 818 817 816 816 815 814 813 811 808 806 803 801 800 799 796 793 789 786 782 778 776 772 768 764 762 759 757 756 755
785 784 781 784 784 780 784 786 787 791 789 790 791 796 805 817 822 821 821 821 821 821 821 821 821 820 820 819 818 818 816 815 815 815 812 809 807 804 800 797 793 789 786 782 778 773 770 766 762 759 758 757 757 756
787 786 785 784 784 789 793 795 794 794 794 793 795 795 805 816 822 824 823 823 823 823 823 823 823 822 822 821 820 819 818 817 816 815 813 811 807 804 800 796 793 789 785 781 777 774 770 767 764 761 760 760 759 759
788 788 787 785 786 793 794 794 792 792 789 792 792 800 805 807 813 824 827 826 825 825 826 826 825 824 824 822 821 820 819 817 815 813 811 808 805 802 799 794 791 787 783 780 776 773 770 768 765 763 762 762 761 761
792 792 793 792 789 789 792 793 788 788 789 789 795 801 810 811 816 825 828 828 828 828 828 827 826 825 823 821 820 819 817 815 813 811 809 806 803 800 796 792 789 786 782 778 775 773 770 769 767 766 765 764 764 763